Skip Page Navigation
NASA JPL Caltech
NASA Logo - Jet Propulsion Laboratory + View the NASA Portal
+ Center for Near-Earth Object Studies
JPL Home Earth Solar System Stars & Galaxies Technology
JPL Solar System Dynamics
BODIES ORBITS EPHEMERIDES TOOLS PHYSICAL DATA DISCOVERY FAQ SITE MAP
IMPORTANT: The SSD Announcement email list is now available. Major changes are coming in the near future, including possible hostname and/or URL changes. To be notified of such changes, subscribe to this email list.

Please visit this page for more details.


JPL Small-Body Database Browser
Search: [ help ]  
138947 (2001 BA40)
Classification: Apollo [NEO]          SPK-ID: 2138947
Ephemeris | Orbit Diagram | Orbital Elements | Mission Design | Physical Parameters | Discovery Circumstances | Close-Approach Data ]

[ hide orbit diagram ]

For accurate long-term ephemerides, please instead use our Horizons system.This orbit viewer was implemented using two-body methods, and hence should not be used for determining accurate long-term trajectories (over several years or decades) or planetary encounter circumstances.


[ revert to old Java-based viewer ]

Orbital Elements at Epoch 2459000.5 (2020-May-31.0) TDB
Reference: JPL 107 (heliocentric ecliptic J2000)
 Element Value Uncertainty (1-sigma)   Units 
e .2537704843313705 5.4722e-08  
a 1.118872589762343 2.0747e-09 au
q .8349357507532587 6.137e-08 au
i 12.84564125047309 7.0827e-06 deg
node 270.8857298667072 1.9278e-05 deg
peri .06136035587643574 2.745e-05 deg
M 5.226250195984984 2.6175e-05 deg
tp 2458994.224373693445
(2020-May-24.72437369)
3.1427e-05 TDB
period 432.2842163383706
1.18
1.2024e-06
3.292e-09
d
yr
n .8327854369732757 2.3164e-09 deg/d
Q 1.402809428771428 2.6012e-09 au
  Orbit Determination Parameters
   # obs. used (total)      345  
   data-arc span      6945 days (19.01 yr)  
   first obs. used      2001-01-23  
   last obs. used      2020-01-29  
   planetary ephem.      DE431  
   SB-pert. ephem.      SB431-N16  
   condition code      0  
   norm. resid. RMS      .63157  
   source      ORB  
   producer      Otto Matic  
   solution date      2020-Jan-30 14:29:08  

Additional Information
 Earth MOID = .18113 au 
 Jupiter MOID = 3.69 au 
 T_jup = 5.525 
[ show covariance matrix ]

Ephemeris | Orbit Diagram | Orbital Elements | Mission Design | Physical Parameters | Discovery Circumstances | Close-Approach Data ]

Physical Parameter Table
Parameter Symbol Value Units Sigma Reference Notes
absolute magnitude H 18.6   n/a MPO445946  
diameter diameter 0.447 km 0.124 urn:nasa:pds:neowise_diameters_albedos::2.0[neos] (http://adsabs.harvard.edu/abs/2015ApJ...814..117N)  
geometric albedo albedo 0.292   0.282 urn:nasa:pds:neowise_diameters_albedos::2.0[neos] (http://adsabs.harvard.edu/abs/2015ApJ...814..117N)  

138947 (2001 BA40)          Discovered 2001-Jan-23 by NEAT at Haleakala
Reference: 20061205/Numbers.arcLast Updated: 2006-12-13

[ hide close-approach data ]
Close-Approach Data   ...sorted by Date/Time (TDB)
Date/Time (TDB) Time Uncertainty
(days_HH:MM)
Body Nominal Distance (au) Minimum Distance (au) Maximum Distance (au) V-relative (km/s) V-infinity (km/s) JD (TDB) Time Uncertainty (minutes) Semi-major axis (km) Semi-minor axis (km) range-LOV angle (deg) N-sigma BP Orbit Ref. Reference Modified
1904-Apr-15 04:46 00:02 Earth 0.212034346543343 0.212032035141667 0.212036658391296 9.65258859464909 9.65128665265908 2416585.698301492 2.46505122923165 503.465467501302 16.3963761251505 76.8980440461816 1455942.35434083 T 107 CATAB v2.0f-lin.ifort 2020-Jan-30 14:29:20 2020-Jan-30 14:29
1904-Dec-07 09:37 < 00:01 Earth 0.410438162723087 0.41043738343052 0.410438942046567 10.0706706870804 10.0700260428093 2416821.900934509 0.921984017329063 188.911234469949 10.7646780468646 78.5827549437633 3577110.88325288 T 107 CATAB v2.0f-lin.ifort 2020-Jan-30 14:29:20 2020-Jan-30 14:29
1905-Oct-03 22:38 < 00:01 Earth 0.487556442376827 0.487549164819266 0.487563719963461 20.7485207931699 20.7482574008706 2417122.442862972 0.623730174080049 408.706461914996 17.3000963315741 -27.4144761808112 1702901.47175492 T 107 CATAB v2.0f-lin.ifort 2020-Jan-30 14:29:20 2020-Jan-30 14:29
1910-May-01 17:09 < 00:01 Venus 0.110264272456417 0.110262669911787 0.110265875348966 10.2035033246529 10.2015730198067 2418793.214533478 0.113405554119868 320.243502257176 7.09328943801208 -75.6039341824675 2566028.5868695 T 107 CATAB v2.0f-lin.ifort 2020-Jan-30 14:29:20 2020-Jan-30 14:29
1911-Jan-14 09:02 < 00:01 Earth 0.398951259100343 0.398950401639798 0.398952116585017 9.76911528753132 9.76843160815562 2419050.876453130 0.771295735072539 167.298544722419 12.4850117946573 -75.8130490450896 3006969.75171344 T 107 CATAB v2.0f-lin.ifort 2020-Jan-30 14:29:20 2020-Jan-30 14:29
1911-Aug-08 13:37 00:02 Earth 0.195738507652185 0.195737707503308 0.195739307927014 9.44693197183898 9.44549092392488 2419257.067187740 1.94588762660854 263.531603132647 12.3873050483082 -81.7133587391407 1638266.07290131 T 107 CATAB v2.0f-lin.ifort 2020-Jan-30 14:29:20 2020-Jan-30 14:29
1917-May-05 18:17 00:02 Earth 0.194829066678919 0.194828364538486 0.194829768980058 9.44029552021665 9.43884672720113 2421354.262100327 1.62331597209482 302.500514908792 12.9812473491742 83.8214468856802 1570198.26379243 T 107 CATAB v2.0f-lin.ifort 2020-Jan-30 14:29:20 2020-Jan-30 14:29
1917-Nov-30 10:53 < 00:01 Earth 0.4005783945819 0.400577687766168 0.400579101410202 9.77392568026566 9.77324511320872 2421562.953792415 0.623182657626538 124.433040092171 12.2624761720228 74.5254313912557 2928627.8140091 T 107 CATAB v2.0f-lin.ifort 2020-Jan-30 14:29:20 2020-Jan-30 14:29
1923-Mar-11 15:41 < 00:01 Earth 0.498318914057474 0.498314893064703 0.498322935058319 21.216184478048 21.2159324549872 2423490.153541185 0.329400171767003 224.200580604597 18.0339417812155 26.6719769693416 1648590.44146234 T 107 CATAB v2.0f-lin.ifort 2020-Jan-30 14:29:20 2020-Jan-30 14:29
1924-Jan-07 12:47 < 00:01 Earth 0.409099084578332 0.409098675209019 0.409099493955018 10.066518495293 10.0658714740934 2423792.032873476 0.475315413411716 104.328741234611 10.8647212436527 -80.4140194025152 3656235.23370933 T 107 CATAB v2.0f-lin.ifort 2020-Jan-30 14:29:20 2020-Jan-30 14:29
1924-Aug-27 18:29 00:01 Earth 0.211191603647429 0.211190581947583 0.211192625404657 9.51058219150791 9.50925553376161 2424025.269997576 1.26156920458296 188.858441937907 15.1685431003973 -75.0301631345509 1582486.86235912 T 107 CATAB v2.0f-lin.ifort 2020-Jan-30 14:29:20 2020-Jan-30 14:29
1925-Sep-17 01:02 < 00:01 Venus 0.108288033856621 0.108287709781936 0.108288358035899 10.1671059936948 10.1651334199064 2424410.543209090 0.0727000367400681 198.766116749306 8.58766673249397 -86.0465120633468 1925158.11296631 T 107 CATAB v2.0f-lin.ifort 2020-Jan-30 14:29:20 2020-Jan-30 14:29
1930-May-24 19:53 < 00:01 Earth 0.186087605575939 0.186087304190696 0.186087906998903 9.86889904100801 9.86744807202099 2426121.328810621 0.992756779225501 183.194435821786 10.3717829165157 86.5896586569612 1910473.47807448 T 107 CATAB v2.0f-lin.ifort 2020-Jan-30 14:29:20 2020-Jan-30 14:29
1930-Nov-22 23:41 < 00:01 Earth 0.386560117574251 0.386559469551466 0.386560765603013 9.39202266296794 9.39128873548762 2426303.486672754 0.462819481375828 90.096565370989 13.9986048476961 70.9032951848235 2374182.37114215 T 107 CATAB v2.0f-lin.ifort 2020-Jan-30 14:29:20 2020-Jan-30 14:29
1936-Mar-16 04:33 < 00:01 Earth 0.412872440431028 0.412869603567282 0.412875277302471 18.2756045641093 18.2752514387511 2428243.689497572 0.272568995832219 167.445269740048 18.0857426782282 32.5626114986333 1609349.37308365 T 107 CATAB v2.0f-lin.ifort 2020-Jan-30 14:29:20 2020-Jan-30 14:29
1936-Dec-30 17:26 < 00:01 Earth 0.415987345980349 0.4159871064132 0.415987585549367 10.2192370177183 10.2186102204663 2428533.226279257 0.349065502953324 76.4690805585485 9.71880666731862 -84.7465540382418 4242700.45919231 T 107 CATAB v2.0f-lin.ifort 2020-Jan-30 14:29:20 2020-Jan-30 14:29
1937-Sep-12 16:49 < 00:01 Earth 0.246554420239413 0.246552838108533 0.246556002398071 11.4030270848496 11.4020793268553 2428789.200794256 0.526185602102055 155.149904145631 16.8564627703441 -60.0245485485039 1621071.7849768 T 107 CATAB v2.0f-lin.ifort 2020-Jan-30 14:29:20 2020-Jan-30 14:29
1941-Feb-02 07:40 < 00:01 Venus 0.109404062253367 0.109403533780814 0.109404590790771 10.1554696147235 10.153514927455 2430027.819488776 0.0576613627509775 146.65753782874 10.2821202181928 80.4524440360612 1522634.80528519 T 107 CATAB v2.0f-lin.ifort 2020-Jan-30 14:29:20 2020-Jan-30 14:29
1943-Feb-14 18:41 < 00:01 Earth 0.333404891803789 0.333403986963255 0.33340579665302 7.56820454063326 7.56714850680814 2430770.278695377 0.598902622745558 103.147447983275 18.1629691538011 -66.0123431065739 1339907.29135991 T 107 CATAB v2.0f-lin.ifort 2020-Jan-30 14:29:20 2020-Jan-30 14:29
1943-Jun-12 08:11 < 00:01 Earth 0.181694138403239 0.181693948536138 0.1816943282719 10.2042396796167 10.2028024658315 2430887.840630761 0.705864436520473 123.870443791599 9.24582234715998 89.0564728654784 2156259.48353149 T 107 CATAB v2.0f-lin.ifort 2020-Jan-30 14:29:20 2020-Jan-30 14:29
1943-Nov-14 01:22 < 00:01 Earth 0.366892959238702 0.36689230468849 0.366893613792834 8.76182460481841 8.76099571087335 2431042.556747221 0.419295608880036 75.9483928097999 15.9825007729729 67.4696928489572 1822549.5633855 T 107 CATAB v2.0f-lin.ifort 2020-Jan-30 14:29:20 2020-Jan-30 14:29
1949-Mar-22 22:37 < 00:01 Earth 0.327327744157494 0.327325690468335 0.327329797856663 15.1110433432078 15.110504648351 2432998.442473052 0.273333638266637 137.465555802918 18.0772205149792 42.2972970483069 1566985.82622708 T 107 CATAB v2.0f-lin.ifort 2020-Jan-30 14:29:20 2020-Jan-30 14:29
1949-Dec-23 10:24 < 00:01 Earth 0.418847276262595 0.418847093637483 0.418847458887731 10.303723368276 10.3031059556838 2433273.933359468 0.278476260144781 61.1187303906716 9.0951205340803 -89.5777135227105 4569677.8106616 T 107 CATAB v2.0f-lin.ifort 2020-Jan-30 14:29:20 2020-Jan-30 14:29
